When you browse on this site, cookies collect data to enhance your experience and personalize the content and advertising you see.
Visit our Privacy Policy to learn more. By continuing to use the site, you agree to this use of cookies and data.
  • In Romania
  • List of Countries
  • For 7 days
  • Water Temperature
  • Satellite Maps
  • Weather Map
  • Weather Widgets
  • user-avatar
    Login

    Hourly Weather Tucupita

    Today, 18 June, Tuesday

    Time Temperature Precipitation Wind Pressure Humidity
    00:00 +26°C° 0 mm 1 mps 760 mmHg 96%
    01:00 +26°C° 0 mm 1 mps 759 mmHg 96%
    02:00 +24°C° 0 mm 0 mps 759 mmHg 96%
    03:00 +23°C° 0 mm 0 mps 759 mmHg 97%
    04:00 +23°C° 0 mm 0 mps 759 mmHg 98%
    05:00 +23°C° 0 mm 0 mps 759 mmHg 98%
    06:00 +24°C° 0.4 mm 0 mps 759 mmHg 96%
    07:00 +25°C° 0.4 mm 0 mps 760 mmHg 93%
    08:00 +26°C° 0.4 mm 0 mps 760 mmHg 91%
    09:00 +28°C° 0.7 mm 1 mps 760 mmHg 90%
    10:00 +28°C° 0.7 mm 1 mps 760 mmHg 89%
    11:00 +28°C° 0.7 mm 1 mps 760 mmHg 88%
    12:00 +29°C° 1.3 mm 1 mps 759 mmHg 87%
    13:00 +29°C° 1.3 mm 2 mps 759 mmHg 86%
    14:00 +29°C° 1.3 mm 3 mps 758 mmHg 85%
    15:00 +28°C° 1 mm 2 mps 758 mmHg 88%
    16:00 +27°C° 1 mm 2 mps 758 mmHg 91%
    17:00 +27°C° 1 mm 2 mps 758 mmHg 95%
    18:00 +26°C° 0.2 mm 2 mps 758 mmHg 95%
    19:00 +26°C° 0.2 mm 1 mps 758 mmHg 96%
    20:00 +26°C° 0.2 mm 1 mps 759 mmHg 97%
    21:00 +26°C° 0.6 mm 1 mps 759 mmHg 97%
    22:00 +26°C° 0.6 mm 1 mps 759 mmHg 97%
    23:00 +26°C° 0.6 mm 1 mps 760 mmHg 98%

    Tomorrow, 19 June, Wednesday

    Time Temperature Precipitation Wind Pressure Humidity
    00:00 +26°C° 1.6 mm 1 mps 759 mmHg 98%
    01:00 +26°C° 1.6 mm 1 mps 759 mmHg 98%
    02:00 +26°C° 1.6 mm 1 mps 758 mmHg 99%
    03:00 +26°C° 2.1 mm 1 mps 758 mmHg 98%
    04:00 +26°C° 2.1 mm 1 mps 758 mmHg 98%
    05:00 +26°C° 2.1 mm 2 mps 758 mmHg 98%
    06:00 +26°C° 2.2 mm 1 mps 759 mmHg 98%
    07:00 +26°C° 2.2 mm 1 mps 759 mmHg 98%
    08:00 +24°C° 2.2 mm 0 mps 759 mmHg 98%
    09:00 +26°C° 4.6 mm 1 mps 760 mmHg 98%
    10:00 +26°C° 4.6 mm 1 mps 760 mmHg 98%
    11:00 +25°C° 4.6 mm 2 mps 760 mmHg 97%
    12:00 +26°C° 0.8 mm 2 mps 760 mmHg 95%
    13:00 +27°C° 0.8 mm 2 mps 759 mmHg 93%
    14:00 +28°C° 0.8 mm 2 mps 759 mmHg 90%
    15:00 +28°C° 0.1 mm 2 mps 759 mmHg 88%
    16:00 +28°C° 0.1 mm 2 mps 758 mmHg 86%
    17:00 +29°C° 0.1 mm 2 mps 758 mmHg 84%
    18:00 +28°C° 0 mm 2 mps 759 mmHg 88%
    19:00 +27°C° 0 mm 1 mps 759 mmHg 92%
    20:00 +26°C° 0 mm 1 mps 760 mmHg 96%
    21:00 +26°C° 0 mm 1 mps 760 mmHg 96%
    22:00 +25°C° 0 mm 1 mps 760 mmHg 96%
    23:00 +25°C° 0 mm 1 mps 761 mmHg 96%

    Day after tomorrow, 20 June, Thursday

    Time Temperature Precipitation Wind Pressure Humidity
    00:00 +25°C° 0 mm 1 mps 760 mmHg 97%
    01:00 +25°C° 0 mm 1 mps 760 mmHg 98%
    02:00 +24°C° 0 mm 1 mps 759 mmHg 98%
    03:00 +24°C° 0 mm 1 mps 760 mmHg 99%
    04:00 +24°C° 0 mm 1 mps 760 mmHg 99%
    05:00 +24°C° 0 mm 1 mps 760 mmHg 99%
    06:00 +26°C° 0.2 mm 1 mps 760 mmHg 95%
    07:00 +27°C° 0.2 mm 1 mps 761 mmHg 91%
    08:00 +28°C° 0.2 mm 2 mps 761 mmHg 87%
    09:00 +29°C° 0.4 mm 2 mps 761 mmHg 83%
    10:00 +30°C° 0.4 mm 2 mps 761 mmHg 78%
    11:00 +31°C° 0.4 mm 3 mps 761 mmHg 73%
    12:00 +30°C° 1 mm 3 mps 761 mmHg 77%
    13:00 +30°C° 1 mm 3 mps 760 mmHg 80%
    14:00 +30°C° 1 mm 3 mps 760 mmHg 84%
    15:00 +29°C° 0.6 mm 2 mps 760 mmHg 87%
    16:00 +28°C° 0.6 mm 2 mps 760 mmHg 90%
    17:00 +27°C° 0.6 mm 2 mps 759 mmHg 93%
    18:00 +27°C° 0.1 mm 2 mps 760 mmHg 95%
    19:00 +26°C° 0.1 mm 2 mps 760 mmHg 96%
    20:00 +26°C° 0.1 mm 2 mps 761 mmHg 97%
    21:00 +26°C° 0 mm 2 mps 761 mmHg 96%
    22:00 +26°C° 0 mm 2 mps 761 mmHg 96%
    23:00 +25°C° 0 mm 2 mps 762 mmHg 95%

    21 June, Friday

    Time Temperature Precipitation Wind Pressure Humidity
    00:00 +25°C° 0.1 mm 1 mps 761 mmHg 96%
    01:00 +25°C° 0.1 mm 1 mps 761 mmHg 97%
    02:00 +25°C° 0.1 mm 1 mps 760 mmHg 97%
    03:00 +25°C° 0.2 mm 1 mps 760 mmHg 97%
    04:00 +25°C° 0.2 mm 1 mps 760 mmHg 97%
    05:00 +25°C° 0.2 mm 1 mps 760 mmHg 96%
    06:00 +26°C° 0.1 mm 1 mps 761 mmHg 95%
    07:00 +26°C° 0.1 mm 2 mps 761 mmHg 93%
    08:00 +27°C° 0.1 mm 2 mps 762 mmHg 92%
    09:00 +28°C° 0.5 mm 2 mps 762 mmHg 87%
    10:00 +29°C° 0.5 mm 3 mps 762 mmHg 82%
    11:00 +30°C° 0.5 mm 3 mps 762 mmHg 77%
    12:00 +30°C° 0.9 mm 3 mps 761 mmHg 78%
    13:00 +30°C° 0.9 mm 3 mps 761 mmHg 79%
    14:00 +30°C° 0.9 mm 3 mps 760 mmHg 81%
    15:00 +30°C° 0.7 mm 2 mps 760 mmHg 83%
    16:00 +29°C° 0.7 mm 2 mps 759 mmHg 86%
    17:00 +29°C° 0.7 mm 2 mps 759 mmHg 88%
    18:00 +28°C° 0.4 mm 2 mps 760 mmHg 91%
    19:00 +27°C° 0.4 mm 1 mps 760 mmHg 93%
    20:00 +26°C° 0.4 mm 1 mps 761 mmHg 96%
    21:00 +26°C° 0.3 mm 1 mps 761 mmHg 97%
    22:00 +26°C° 0.3 mm 1 mps 762 mmHg 97%
    23:00 +25°C° 0.3 mm 1 mps 762 mmHg 98%

    22 June, Saturday

    Time Temperature Precipitation Wind Pressure Humidity
    00:00 +25°C° 0.3 mm 1 mps 762 mmHg 98%
    01:00 +25°C° 0.3 mm 1 mps 761 mmHg 98%
    02:00 +25°C° 0.3 mm 1 mps 760 mmHg 98%
    03:00 +25°C° 0.7 mm 1 mps 760 mmHg 98%
    04:00 +25°C° 0.7 mm 1 mps 760 mmHg 98%
    05:00 +25°C° 0.7 mm 1 mps 760 mmHg 98%
    06:00 +25°C° 1 mm 1 mps 761 mmHg 98%
    07:00 +26°C° 1 mm 1 mps 761 mmHg 97%
    08:00 +26°C° 1 mm 1 mps 761 mmHg 96%
    09:00 +27°C° 1 mm 1 mps 761 mmHg 94%
    10:00 +28°C° 1 mm 2 mps 761 mmHg 92%
    11:00 +28°C° 1 mm 2 mps 761 mmHg 90%
    12:00 +29°C° 1.3 mm 2 mps 761 mmHg 90%
    13:00 +29°C° 1.3 mm 2 mps 760 mmHg 89%
    14:00 +29°C° 1.3 mm 3 mps 759 mmHg 88%
    15:00 +28°C° 1.3 mm 2 mps 759 mmHg 91%
    16:00 +27°C° 1.3 mm 2 mps 759 mmHg 93%
    17:00 +27°C° 1.3 mm 2 mps 758 mmHg 95%
    18:00 +26°C° 0.1 mm 1 mps 759 mmHg 96%
    19:00 +26°C° 0.1 mm 1 mps 759 mmHg 97%
    20:00 +26°C° 0.1 mm 1 mps 760 mmHg 98%
    21:00 +26°C° 0.2 mm 1 mps 760 mmHg 98%
    22:00 +26°C° 0.2 mm 1 mps 761 mmHg 98%
    23:00 +25°C° 0.2 mm 1 mps 761 mmHg 98%

    23 June, Sunday

    Time Temperature Precipitation Wind Pressure Humidity
    00:00 +25°C° 0.1 mm 1 mps 760 mmHg 98%
    01:00 +25°C° 0.1 mm 1 mps 760 mmHg 98%
    02:00 +25°C° 0.1 mm 1 mps 759 mmHg 99%
    03:00 +25°C° 0 mm 1 mps 759 mmHg 99%
    04:00 +25°C° 0 mm 1 mps 759 mmHg 99%
    05:00 +25°C° 0 mm 1 mps 759 mmHg 99%
    06:00 +26°C° 0 mm 1 mps 760 mmHg 96%
    07:00 +26°C° 0 mm 1 mps 760 mmHg 94%
    08:00 +27°C° 0 mm 1 mps 760 mmHg 92%
    09:00 +28°C° 0 mm 2 mps 760 mmHg 84%
    10:00 +30°C° 0 mm 2 mps 760 mmHg 77%
    11:00 +31°C° 0 mm 2 mps 760 mmHg 69%
    12:00 +31°C° 0.6 mm 2 mps 760 mmHg 71%
    13:00 +31°C° 0.6 mm 3 mps 759 mmHg 73%
    14:00 +31°C° 0.6 mm 3 mps 758 mmHg 75%
    15:00 +30°C° 2.1 mm 3 mps 758 mmHg 80%
    16:00 +29°C° 2.1 mm 3 mps 758 mmHg 86%
    17:00 +28°C° 2.1 mm 2 mps 758 mmHg 91%
    18:00 +27°C° 0 mm 2 mps 758 mmHg 93%
    19:00 +27°C° 0 mm 2 mps 759 mmHg 94%
    20:00 +26°C° 0 mm 1 mps 759 mmHg 96%
    21:00 +26°C° 0 mm 1 mps 760 mmHg 96%
    22:00 +26°C° 0 mm 1 mps 760 mmHg 96%
    23:00 +26°C° 0 mm 1 mps 760 mmHg 96%
    Show more